Index of /20260413/WXO-DD/model_gdps/15km/12/051
Name Last modified Size Description
Parent Directory -
20260413T12Z_MSC_GDPS_AbsoluteVorticity_IsbL-0200_LatLon0.15_PT051H.grib2 2026-04-13 16:25 1.2M
20260413T12Z_MSC_GDPS_AbsoluteVorticity_IsbL-0250_LatLon0.15_PT051H.grib2 2026-04-13 16:25 1.3M
20260413T12Z_MSC_GDPS_AbsoluteVorticity_IsbL-0500_LatLon0.15_PT051H.grib2 2026-04-13 16:25 1.2M
20260413T12Z_MSC_GDPS_AbsoluteVorticity_IsbL-0700_LatLon0.15_PT051H.grib2 2026-04-13 16:25 1.3M
20260413T12Z_MSC_GDPS_AbsoluteVorticity_IsbL-0850_LatLon0.15_PT051H.grib2 2026-04-13 16:25 1.6M
20260413T12Z_MSC_GDPS_AirTemp_AGL-120m_LatLon0.15_PT051H.grib2 2026-04-13 16:25 916K
20260413T12Z_MSC_GDPS_AirTemp_AGL-2m_LatLon0.15_PT051H.grib2 2026-04-13 16:25 1.0M
20260413T12Z_MSC_GDPS_AirTemp_AGL-40m_LatLon0.15_PT051H.grib2 2026-04-13 16:25 936K
20260413T12Z_MSC_GDPS_AirTemp_AGL-80m_LatLon0.15_PT051H.grib2 2026-04-13 16:25 925K
20260413T12Z_MSC_GDPS_AirTemp_IsbL-0001_LatLon0.15_PT051H.grib2 2026-04-13 16:25 697K
20260413T12Z_MSC_GDPS_AirTemp_IsbL-0005_LatLon0.15_PT051H.grib2 2026-04-13 16:25 685K
20260413T12Z_MSC_GDPS_AirTemp_IsbL-0010_LatLon0.15_PT051H.grib2 2026-04-13 16:25 759K
20260413T12Z_MSC_GDPS_AirTemp_IsbL-0020_LatLon0.15_PT051H.grib2 2026-04-13 16:25 701K
20260413T12Z_MSC_GDPS_AirTemp_IsbL-0030_LatLon0.15_PT051H.grib2 2026-04-13 16:25 756K
20260413T12Z_MSC_GDPS_AirTemp_IsbL-0050_LatLon0.15_PT051H.grib2 2026-04-13 16:25 819K
20260413T12Z_MSC_GDPS_AirTemp_IsbL-0100_LatLon0.15_PT051H.grib2 2026-04-13 16:25 953K
20260413T12Z_MSC_GDPS_AirTemp_IsbL-0150_LatLon0.15_PT051H.grib2 2026-04-13 16:25 962K
20260413T12Z_MSC_GDPS_AirTemp_IsbL-0175_LatLon0.15_PT051H.grib2 2026-04-13 16:25 950K
20260413T12Z_MSC_GDPS_AirTemp_IsbL-0200_LatLon0.15_PT051H.grib2 2026-04-13 16:25 961K
20260413T12Z_MSC_GDPS_AirTemp_IsbL-0225_LatLon0.15_PT051H.grib2 2026-04-13 16:25 969K
20260413T12Z_MSC_GDPS_AirTemp_IsbL-0250_LatLon0.15_PT051H.grib2 2026-04-13 16:25 1.0M
20260413T12Z_MSC_GDPS_AirTemp_IsbL-0275_LatLon0.15_PT051H.grib2 2026-04-13 16:25 940K
20260413T12Z_MSC_GDPS_AirTemp_IsbL-0300_LatLon0.15_PT051H.grib2 2026-04-13 16:25 955K
20260413T12Z_MSC_GDPS_AirTemp_IsbL-0350_LatLon0.15_PT051H.grib2 2026-04-13 16:25 931K
20260413T12Z_MSC_GDPS_AirTemp_IsbL-0400_LatLon0.15_PT051H.grib2 2026-04-13 16:25 940K
20260413T12Z_MSC_GDPS_AirTemp_IsbL-0450_LatLon0.15_PT051H.grib2 2026-04-13 16:25 961K
20260413T12Z_MSC_GDPS_AirTemp_IsbL-0500_LatLon0.15_PT051H.grib2 2026-04-13 16:25 1.0M
20260413T12Z_MSC_GDPS_AirTemp_IsbL-0550_LatLon0.15_PT051H.grib2 2026-04-13 16:25 1.0M
20260413T12Z_MSC_GDPS_AirTemp_IsbL-0600_LatLon0.15_PT051H.grib2 2026-04-13 16:25 894K
20260413T12Z_MSC_GDPS_AirTemp_IsbL-0650_LatLon0.15_PT051H.grib2 2026-04-13 16:25 918K
20260413T12Z_MSC_GDPS_AirTemp_IsbL-0700_LatLon0.15_PT051H.grib2 2026-04-13 16:25 957K
20260413T12Z_MSC_GDPS_AirTemp_IsbL-0750_LatLon0.15_PT051H.grib2 2026-04-13 16:25 1.0M
20260413T12Z_MSC_GDPS_AirTemp_IsbL-0800_LatLon0.15_PT051H.grib2 2026-04-13 16:25 1.1M
20260413T12Z_MSC_GDPS_AirTemp_IsbL-0850_LatLon0.15_PT051H.grib2 2026-04-13 16:25 1.1M
20260413T12Z_MSC_GDPS_AirTemp_IsbL-0875_LatLon0.15_PT051H.grib2 2026-04-13 16:25 1.2M
20260413T12Z_MSC_GDPS_AirTemp_IsbL-0900_LatLon0.15_PT051H.grib2 2026-04-13 16:25 1.2M
20260413T12Z_MSC_GDPS_AirTemp_IsbL-0925_LatLon0.15_PT051H.grib2 2026-04-13 16:25 1.1M
20260413T12Z_MSC_GDPS_AirTemp_IsbL-0950_LatLon0.15_PT051H.grib2 2026-04-13 16:25 1.2M
20260413T12Z_MSC_GDPS_AirTemp_IsbL-0970_LatLon0.15_PT051H.grib2 2026-04-13 16:25 1.2M
20260413T12Z_MSC_GDPS_AirTemp_IsbL-0985_LatLon0.15_PT051H.grib2 2026-04-13 16:25 1.1M
20260413T12Z_MSC_GDPS_AirTemp_IsbL-1000_LatLon0.15_PT051H.grib2 2026-04-13 16:25 1.1M
20260413T12Z_MSC_GDPS_AirTemp_IsbL-1015_LatLon0.15_PT051H.grib2 2026-04-13 16:25 1.1M
20260413T12Z_MSC_GDPS_Albedo_Sfc_LatLon0.15_PT051H.grib2 2026-04-13 16:25 245K
20260413T12Z_MSC_GDPS_CAPE_Sfc_LatLon0.15_PT051H.grib2 2026-04-13 16:25 3.9M
20260413T12Z_MSC_GDPS_CIN_Sfc_LatLon0.15_PT051H.grib2 2026-04-13 16:25 2.8M
20260413T12Z_MSC_GDPS_CloudWater_EAtm_LatLon0.15_PT051H.grib2 2026-04-13 16:25 528K
20260413T12Z_MSC_GDPS_ConvectivePrecip-Accum_Sfc_LatLon0.15_PT051H.grib2 2026-04-13 16:25 2.6M
20260413T12Z_MSC_GDPS_DewPointDepression_AGL-2m_LatLon0.15_PT051H.grib2 2026-04-13 16:25 757K
20260413T12Z_MSC_GDPS_DewPointDepression_IsbL-0010_LatLon0.15_PT051H.grib2 2026-04-13 16:25 17K
20260413T12Z_MSC_GDPS_DewPointDepression_IsbL-0020_LatLon0.15_PT051H.grib2 2026-04-13 16:25 49K
20260413T12Z_MSC_GDPS_DewPointDepression_IsbL-0030_LatLon0.15_PT051H.grib2 2026-04-13 16:25 72K
20260413T12Z_MSC_GDPS_DewPointDepression_IsbL-0050_LatLon0.15_PT051H.grib2 2026-04-13 16:25 359K
20260413T12Z_MSC_GDPS_DewPointDepression_IsbL-0100_LatLon0.15_PT051H.grib2 2026-04-13 16:25 376K
20260413T12Z_MSC_GDPS_DewPointDepression_IsbL-0150_LatLon0.15_PT051H.grib2 2026-04-13 16:25 455K
20260413T12Z_MSC_GDPS_DewPointDepression_IsbL-0175_LatLon0.15_PT051H.grib2 2026-04-13 16:25 532K
20260413T12Z_MSC_GDPS_DewPointDepression_IsbL-0200_LatLon0.15_PT051H.grib2 2026-04-13 16:25 629K
20260413T12Z_MSC_GDPS_DewPointDepression_IsbL-0225_LatLon0.15_PT051H.grib2 2026-04-13 16:25 759K
20260413T12Z_MSC_GDPS_DewPointDepression_IsbL-0250_LatLon0.15_PT051H.grib2 2026-04-13 16:25 871K
20260413T12Z_MSC_GDPS_DewPointDepression_IsbL-0275_LatLon0.15_PT051H.grib2 2026-04-13 16:25 890K
20260413T12Z_MSC_GDPS_DewPointDepression_IsbL-0300_LatLon0.15_PT051H.grib2 2026-04-13 16:25 937K
20260413T12Z_MSC_GDPS_DewPointDepression_IsbL-0350_LatLon0.15_PT051H.grib2 2026-04-13 16:25 971K
20260413T12Z_MSC_GDPS_DewPointDepression_IsbL-0400_LatLon0.15_PT051H.grib2 2026-04-13 16:25 1.0M
20260413T12Z_MSC_GDPS_DewPointDepression_IsbL-0450_LatLon0.15_PT051H.grib2 2026-04-13 16:25 1.0M
20260413T12Z_MSC_GDPS_DewPointDepression_IsbL-0500_LatLon0.15_PT051H.grib2 2026-04-13 16:25 1.0M
20260413T12Z_MSC_GDPS_DewPointDepression_IsbL-0550_LatLon0.15_PT051H.grib2 2026-04-13 16:25 1.1M
20260413T12Z_MSC_GDPS_DewPointDepression_IsbL-0600_LatLon0.15_PT051H.grib2 2026-04-13 16:25 1.1M
20260413T12Z_MSC_GDPS_DewPointDepression_IsbL-0650_LatLon0.15_PT051H.grib2 2026-04-13 16:25 1.1M
20260413T12Z_MSC_GDPS_DewPointDepression_IsbL-0700_LatLon0.15_PT051H.grib2 2026-04-13 16:25 1.1M
20260413T12Z_MSC_GDPS_DewPointDepression_IsbL-0750_LatLon0.15_PT051H.grib2 2026-04-13 16:25 1.1M
20260413T12Z_MSC_GDPS_DewPointDepression_IsbL-0800_LatLon0.15_PT051H.grib2 2026-04-13 16:25 1.2M
20260413T12Z_MSC_GDPS_DewPointDepression_IsbL-0850_LatLon0.15_PT051H.grib2 2026-04-13 16:25 1.1M
20260413T12Z_MSC_GDPS_DewPointDepression_IsbL-0875_LatLon0.15_PT051H.grib2 2026-04-13 16:25 1.1M
20260413T12Z_MSC_GDPS_DewPointDepression_IsbL-0900_LatLon0.15_PT051H.grib2 2026-04-13 16:25 1.0M
20260413T12Z_MSC_GDPS_DewPointDepression_IsbL-0925_LatLon0.15_PT051H.grib2 2026-04-13 16:25 1.0M
20260413T12Z_MSC_GDPS_DewPointDepression_IsbL-0950_LatLon0.15_PT051H.grib2 2026-04-13 16:25 1.0M
20260413T12Z_MSC_GDPS_DewPointDepression_IsbL-0970_LatLon0.15_PT051H.grib2 2026-04-13 16:25 1.0M
20260413T12Z_MSC_GDPS_DewPointDepression_IsbL-0985_LatLon0.15_PT051H.grib2 2026-04-13 16:25 1.0M
20260413T12Z_MSC_GDPS_DewPointDepression_IsbL-1000_LatLon0.15_PT051H.grib2 2026-04-13 16:25 1.0M
20260413T12Z_MSC_GDPS_DewPointDepression_IsbL-1015_LatLon0.15_PT051H.grib2 2026-04-13 16:25 919K
20260413T12Z_MSC_GDPS_DewPoint_AGL-2m_LatLon0.15_PT051H.grib2 2026-04-13 16:25 618K
20260413T12Z_MSC_GDPS_DownwardLongwaveRadiationFlux-Accum_Sfc_LatLon0.15_PT051H.grib2 2026-04-13 16:25 830K
20260413T12Z_MSC_GDPS_DownwardShortwaveRadiationFlux-Accum_NTAtm_LatLon0.15_PT051H.grib2 2026-04-13 16:25 299K
20260413T12Z_MSC_GDPS_DownwardShortwaveRadiationFlux-Accum_Sfc_LatLon0.15_PT051H.grib2 2026-04-13 16:25 1.0M
20260413T12Z_MSC_GDPS_FreezingRain-Accum1h_Sfc_LatLon0.15_PT051H.grib2 2026-04-13 16:25 42K
20260413T12Z_MSC_GDPS_FreezingRain-Accum3h_Sfc_LatLon0.15_PT051H.grib2 2026-04-13 16:25 59K
20260413T12Z_MSC_GDPS_FreezingRain-Accum_Sfc_LatLon0.15_PT051H.grib2 2026-04-13 16:25 161K
20260413T12Z_MSC_GDPS_GeopotentialHeight_IsbL-0001_LatLon0.15_PT051H.grib2 2026-04-13 16:25 546K
20260413T12Z_MSC_GDPS_GeopotentialHeight_IsbL-0005_LatLon0.15_PT051H.grib2 2026-04-13 16:25 450K
20260413T12Z_MSC_GDPS_GeopotentialHeight_IsbL-0010_LatLon0.15_PT051H.grib2 2026-04-13 16:25 440K
20260413T12Z_MSC_GDPS_GeopotentialHeight_IsbL-0020_LatLon0.15_PT051H.grib2 2026-04-13 16:25 585K
20260413T12Z_MSC_GDPS_GeopotentialHeight_IsbL-0030_LatLon0.15_PT051H.grib2 2026-04-13 16:25 588K
20260413T12Z_MSC_GDPS_GeopotentialHeight_IsbL-0050_LatLon0.15_PT051H.grib2 2026-04-13 16:25 517K
20260413T12Z_MSC_GDPS_GeopotentialHeight_IsbL-0100_LatLon0.15_PT051H.grib2 2026-04-13 16:25 618K
20260413T12Z_MSC_GDPS_GeopotentialHeight_IsbL-0150_LatLon0.15_PT051H.grib2 2026-04-13 16:25 632K
20260413T12Z_MSC_GDPS_GeopotentialHeight_IsbL-0175_LatLon0.15_PT051H.grib2 2026-04-13 16:25 635K
20260413T12Z_MSC_GDPS_GeopotentialHeight_IsbL-0200_LatLon0.15_PT051H.grib2 2026-04-13 16:25 637K
20260413T12Z_MSC_GDPS_GeopotentialHeight_IsbL-0225_LatLon0.15_PT051H.grib2 2026-04-13 16:25 640K
20260413T12Z_MSC_GDPS_GeopotentialHeight_IsbL-0250_LatLon0.15_PT051H.grib2 2026-04-13 16:25 638K
20260413T12Z_MSC_GDPS_GeopotentialHeight_IsbL-0275_LatLon0.15_PT051H.grib2 2026-04-13 16:25 641K
20260413T12Z_MSC_GDPS_GeopotentialHeight_IsbL-0300_LatLon0.15_PT051H.grib2 2026-04-13 16:25 639K
20260413T12Z_MSC_GDPS_GeopotentialHeight_IsbL-0350_LatLon0.15_PT051H.grib2 2026-04-13 16:25 629K
20260413T12Z_MSC_GDPS_GeopotentialHeight_IsbL-0400_LatLon0.15_PT051H.grib2 2026-04-13 16:25 617K
20260413T12Z_MSC_GDPS_GeopotentialHeight_IsbL-0450_LatLon0.15_PT051H.grib2 2026-04-13 16:25 537K
20260413T12Z_MSC_GDPS_GeopotentialHeight_IsbL-0500_LatLon0.15_PT051H.grib2 2026-04-13 16:25 527K
20260413T12Z_MSC_GDPS_GeopotentialHeight_IsbL-0550_LatLon0.15_PT051H.grib2 2026-04-13 16:25 688K
20260413T12Z_MSC_GDPS_GeopotentialHeight_IsbL-0600_LatLon0.15_PT051H.grib2 2026-04-13 16:25 681K
20260413T12Z_MSC_GDPS_GeopotentialHeight_IsbL-0650_LatLon0.15_PT051H.grib2 2026-04-13 16:25 683K
20260413T12Z_MSC_GDPS_GeopotentialHeight_IsbL-0700_LatLon0.15_PT051H.grib2 2026-04-13 16:25 681K
20260413T12Z_MSC_GDPS_GeopotentialHeight_IsbL-0750_LatLon0.15_PT051H.grib2 2026-04-13 16:25 687K
20260413T12Z_MSC_GDPS_GeopotentialHeight_IsbL-0800_LatLon0.15_PT051H.grib2 2026-04-13 16:25 699K
20260413T12Z_MSC_GDPS_GeopotentialHeight_IsbL-0850_LatLon0.15_PT051H.grib2 2026-04-13 16:25 706K
20260413T12Z_MSC_GDPS_GeopotentialHeight_IsbL-0875_LatLon0.15_PT051H.grib2 2026-04-13 16:25 715K
20260413T12Z_MSC_GDPS_GeopotentialHeight_IsbL-0900_LatLon0.15_PT051H.grib2 2026-04-13 16:25 722K
20260413T12Z_MSC_GDPS_GeopotentialHeight_IsbL-0925_LatLon0.15_PT051H.grib2 2026-04-13 16:25 729K
20260413T12Z_MSC_GDPS_GeopotentialHeight_IsbL-0950_LatLon0.15_PT051H.grib2 2026-04-13 16:25 736K
20260413T12Z_MSC_GDPS_GeopotentialHeight_IsbL-0970_LatLon0.15_PT051H.grib2 2026-04-13 16:25 750K
20260413T12Z_MSC_GDPS_GeopotentialHeight_IsbL-0985_LatLon0.15_PT051H.grib2 2026-04-13 16:25 766K
20260413T12Z_MSC_GDPS_GeopotentialHeight_IsbL-1000_LatLon0.15_PT051H.grib2 2026-04-13 16:25 788K
20260413T12Z_MSC_GDPS_GeopotentialHeight_IsbL-1015_LatLon0.15_PT051H.grib2 2026-04-13 16:25 810K
20260413T12Z_MSC_GDPS_Humidex_Sfc_LatLon0.15_PT051H.grib2 2026-04-13 16:25 5.3M
20260413T12Z_MSC_GDPS_IcePellets-Accum1h_Sfc_LatLon0.15_PT051H.grib2 2026-04-13 16:25 9.7K
20260413T12Z_MSC_GDPS_IcePellets-Accum3h_Sfc_LatLon0.15_PT051H.grib2 2026-04-13 16:25 12K
20260413T12Z_MSC_GDPS_IcePellets-Accum_Sfc_LatLon0.15_PT051H.grib2 2026-04-13 16:25 58K
20260413T12Z_MSC_GDPS_KIndex_Sfc_LatLon0.15_PT051H.grib2 2026-04-13 16:25 6.5M
20260413T12Z_MSC_GDPS_LatentHeatNetFlux_Sfc_LatLon0.15_PT051H.grib2 2026-04-13 16:25 522K
20260413T12Z_MSC_GDPS_LiftedIndex-MU-VT_IsbL-0500_LatLon0.15_PT051H.grib2 2026-04-13 16:25 5.4M
20260413T12Z_MSC_GDPS_NetLongwaveRadiationFlux-Accum_Sfc_LatLon0.15_PT051H.grib2 2026-04-13 16:25 1.1M
20260413T12Z_MSC_GDPS_NetShortwaveRadiationFlux-Accum_Sfc_LatLon0.15_PT051H.grib2 2026-04-13 16:25 1.0M
20260413T12Z_MSC_GDPS_O3MixingRatio_LatLon0.15_PT051H.grib2 2026-04-13 17:06 2.0M
20260413T12Z_MSC_GDPS_O3_EAtm_LatLon0.15_PT051H.grib2 2026-04-13 17:06 2.1M
20260413T12Z_MSC_GDPS_PlanetaryBoundaryLayerHeight_Sfc_LatLon0.15_PT051H.grib2 2026-04-13 16:25 2.5M
20260413T12Z_MSC_GDPS_Precip-Accum1h_Sfc_LatLon0.15_PT051H.grib2 2026-04-13 16:25 3.2M
20260413T12Z_MSC_GDPS_Precip-Accum3h_Sfc_LatLon0.15_PT051H.grib2 2026-04-13 16:25 3.5M
20260413T12Z_MSC_GDPS_Precip-Accum_Sfc_LatLon0.15_PT051H.grib2 2026-04-13 16:25 4.5M
20260413T12Z_MSC_GDPS_PrecipRate_Sfc_LatLon0.15_PT051H.grib2 2026-04-13 16:25 2.9M
20260413T12Z_MSC_GDPS_PrecipType-Instant_Sfc_LatLon0.15_PT051H.grib2 2026-04-13 16:25 1.6M
20260413T12Z_MSC_GDPS_Pressure_MSL_LatLon0.15_PT051H.grib2 2026-04-13 16:25 829K
20260413T12Z_MSC_GDPS_Pressure_PVU-1.5_LatLon0.15_PT051H.grib2 2026-04-13 16:25 5.7M
20260413T12Z_MSC_GDPS_Pressure_PVU-1_LatLon0.15_PT051H.grib2 2026-04-13 16:25 6.0M
20260413T12Z_MSC_GDPS_Pressure_PVU-2_LatLon0.15_PT051H.grib2 2026-04-13 16:25 5.6M
20260413T12Z_MSC_GDPS_Pressure_Sfc_LatLon0.15_PT051H.grib2 2026-04-13 16:25 1.1M
20260413T12Z_MSC_GDPS_RadiativeTemp_Sfc_LatLon0.15_PT051H.grib2 2026-04-13 16:25 672K
20260413T12Z_MSC_GDPS_Rain-Accum1h_Sfc_LatLon0.15_PT051H.grib2 2026-04-13 16:25 1.7M
20260413T12Z_MSC_GDPS_Rain-Accum3h_Sfc_LatLon0.15_PT051H.grib2 2026-04-13 16:25 1.7M
20260413T12Z_MSC_GDPS_Rain-Accum_Sfc_LatLon0.15_PT051H.grib2 2026-04-13 16:25 3.5M
20260413T12Z_MSC_GDPS_RelativeHumidity_AGL-2m_LatLon0.15_PT051H.grib2 2026-04-13 16:25 1.0M
20260413T12Z_MSC_GDPS_RelativeHumidity_IsbL-0010_LatLon0.15_PT051H.grib2 2026-04-13 16:25 262K
20260413T12Z_MSC_GDPS_RelativeHumidity_IsbL-0020_LatLon0.15_PT051H.grib2 2026-04-13 16:25 388K
20260413T12Z_MSC_GDPS_RelativeHumidity_IsbL-0030_LatLon0.15_PT051H.grib2 2026-04-13 16:25 529K
20260413T12Z_MSC_GDPS_RelativeHumidity_IsbL-0050_LatLon0.15_PT051H.grib2 2026-04-13 16:25 326K
20260413T12Z_MSC_GDPS_RelativeHumidity_IsbL-0100_LatLon0.15_PT051H.grib2 2026-04-13 16:25 497K
20260413T12Z_MSC_GDPS_RelativeHumidity_IsbL-0150_LatLon0.15_PT051H.grib2 2026-04-13 16:25 649K
20260413T12Z_MSC_GDPS_RelativeHumidity_IsbL-0175_LatLon0.15_PT051H.grib2 2026-04-13 16:25 769K
20260413T12Z_MSC_GDPS_RelativeHumidity_IsbL-0200_LatLon0.15_PT051H.grib2 2026-04-13 16:25 683K
20260413T12Z_MSC_GDPS_RelativeHumidity_IsbL-0225_LatLon0.15_PT051H.grib2 2026-04-13 16:25 774K
20260413T12Z_MSC_GDPS_RelativeHumidity_IsbL-0250_LatLon0.15_PT051H.grib2 2026-04-13 16:25 864K
20260413T12Z_MSC_GDPS_RelativeHumidity_IsbL-0275_LatLon0.15_PT051H.grib2 2026-04-13 16:25 886K
20260413T12Z_MSC_GDPS_RelativeHumidity_IsbL-0300_LatLon0.15_PT051H.grib2 2026-04-13 16:25 938K
20260413T12Z_MSC_GDPS_RelativeHumidity_IsbL-0350_LatLon0.15_PT051H.grib2 2026-04-13 16:25 967K
20260413T12Z_MSC_GDPS_RelativeHumidity_IsbL-0400_LatLon0.15_PT051H.grib2 2026-04-13 16:25 1.0M
20260413T12Z_MSC_GDPS_RelativeHumidity_IsbL-0450_LatLon0.15_PT051H.grib2 2026-04-13 16:25 1.0M
20260413T12Z_MSC_GDPS_RelativeHumidity_IsbL-0500_LatLon0.15_PT051H.grib2 2026-04-13 16:25 1.0M
20260413T12Z_MSC_GDPS_RelativeHumidity_IsbL-0550_LatLon0.15_PT051H.grib2 2026-04-13 16:25 1.0M
20260413T12Z_MSC_GDPS_RelativeHumidity_IsbL-0600_LatLon0.15_PT051H.grib2 2026-04-13 16:25 1.1M
20260413T12Z_MSC_GDPS_RelativeHumidity_IsbL-0650_LatLon0.15_PT051H.grib2 2026-04-13 16:25 1.1M
20260413T12Z_MSC_GDPS_RelativeHumidity_IsbL-0700_LatLon0.15_PT051H.grib2 2026-04-13 16:25 1.1M
20260413T12Z_MSC_GDPS_RelativeHumidity_IsbL-0750_LatLon0.15_PT051H.grib2 2026-04-13 16:25 1.2M
20260413T12Z_MSC_GDPS_RelativeHumidity_IsbL-0800_LatLon0.15_PT051H.grib2 2026-04-13 16:25 1.3M
20260413T12Z_MSC_GDPS_RelativeHumidity_IsbL-0850_LatLon0.15_PT051H.grib2 2026-04-13 16:25 1.3M
20260413T12Z_MSC_GDPS_RelativeHumidity_IsbL-0875_LatLon0.15_PT051H.grib2 2026-04-13 16:25 1.3M
20260413T12Z_MSC_GDPS_RelativeHumidity_IsbL-0900_LatLon0.15_PT051H.grib2 2026-04-13 16:25 1.3M
20260413T12Z_MSC_GDPS_RelativeHumidity_IsbL-0925_LatLon0.15_PT051H.grib2 2026-04-13 16:25 1.2M
20260413T12Z_MSC_GDPS_RelativeHumidity_IsbL-0950_LatLon0.15_PT051H.grib2 2026-04-13 16:25 1.2M
20260413T12Z_MSC_GDPS_RelativeHumidity_IsbL-0970_LatLon0.15_PT051H.grib2 2026-04-13 16:25 1.2M
20260413T12Z_MSC_GDPS_RelativeHumidity_IsbL-0985_LatLon0.15_PT051H.grib2 2026-04-13 16:25 1.2M
20260413T12Z_MSC_GDPS_RelativeHumidity_IsbL-1000_LatLon0.15_PT051H.grib2 2026-04-13 16:25 1.1M
20260413T12Z_MSC_GDPS_RelativeHumidity_IsbL-1015_LatLon0.15_PT051H.grib2 2026-04-13 16:25 1.1M
20260413T12Z_MSC_GDPS_RelativeVorticity_IsbL-0200_LatLon0.15_PT051H.grib2 2026-04-13 16:25 1.2M
20260413T12Z_MSC_GDPS_RelativeVorticity_IsbL-0250_LatLon0.15_PT051H.grib2 2026-04-13 16:25 1.3M
20260413T12Z_MSC_GDPS_RelativeVorticity_IsbL-0500_LatLon0.15_PT051H.grib2 2026-04-13 16:25 1.5M
20260413T12Z_MSC_GDPS_RelativeVorticity_IsbL-0700_LatLon0.15_PT051H.grib2 2026-04-13 16:25 1.3M
20260413T12Z_MSC_GDPS_RelativeVorticity_IsbL-0850_LatLon0.15_PT051H.grib2 2026-04-13 16:25 1.6M
20260413T12Z_MSC_GDPS_Runoff-Accum_Sfc_LatLon0.15_PT051H.grib2 2026-04-13 16:25 104K
20260413T12Z_MSC_GDPS_SensibleHeatNetFlux_Sfc_LatLon0.15_PT051H.grib2 2026-04-13 16:25 469K
20260413T12Z_MSC_GDPS_ShowalterIndex_IsbL-0500_LatLon0.15_PT051H.grib2 2026-04-13 16:25 6.2M
20260413T12Z_MSC_GDPS_Snow-Accum1h_Sfc_LatLon0.15_PT051H.grib2 2026-04-13 16:25 1.2M
20260413T12Z_MSC_GDPS_Snow-Accum3h_Sfc_LatLon0.15_PT051H.grib2 2026-04-13 16:25 1.3M
20260413T12Z_MSC_GDPS_Snow-Accum_Sfc_LatLon0.15_PT051H.grib2 2026-04-13 16:25 1.8M
20260413T12Z_MSC_GDPS_SnowDensity_Sfc_LatLon0.15_PT051H.grib2 2026-04-13 16:25 264K
20260413T12Z_MSC_GDPS_SnowDepth_Sfc_LatLon0.15_PT051H.grib2 2026-04-13 16:25 1.8M
20260413T12Z_MSC_GDPS_SoilTemp_DBS-0to10cm_LatLon0.15_PT051H.grib2 2026-04-13 16:25 503K
20260413T12Z_MSC_GDPS_SoilTemp_Sfc_LatLon0.15_PT051H.grib2 2026-04-13 16:25 576K
20260413T12Z_MSC_GDPS_SoilVolumetricIceContent_Sfc_LatLon0.15_PT051H.grib2 2026-04-13 16:25 225K
20260413T12Z_MSC_GDPS_SoilVolumetricWaterContent_DBS-0to10cm_LatLon0.15_PT051H.grib2 2026-04-13 16:25 551K
20260413T12Z_MSC_GDPS_SoilVolumetricWaterContent_DBS-0to1cm_LatLon0.15_PT051H.grib2 2026-04-13 16:25 648K
20260413T12Z_MSC_GDPS_SpecificHumidity_AGL-120m_LatLon0.15_PT051H.grib2 2026-04-13 16:25 1.1M
20260413T12Z_MSC_GDPS_SpecificHumidity_AGL-2m_LatLon0.15_PT051H.grib2 2026-04-13 16:25 1.2M
20260413T12Z_MSC_GDPS_SpecificHumidity_AGL-40m_LatLon0.15_PT051H.grib2 2026-04-13 16:25 1.1M
20260413T12Z_MSC_GDPS_SpecificHumidity_AGL-80m_LatLon0.15_PT051H.grib2 2026-04-13 16:25 1.1M
20260413T12Z_MSC_GDPS_SpecificHumidity_IsbL-0001_LatLon0.15_PT051H.grib2 2026-04-13 16:25 1.2M
20260413T12Z_MSC_GDPS_SpecificHumidity_IsbL-0005_LatLon0.15_PT051H.grib2 2026-04-13 16:25 1.2M
20260413T12Z_MSC_GDPS_SpecificHumidity_IsbL-0010_LatLon0.15_PT051H.grib2 2026-04-13 16:25 1.3M
20260413T12Z_MSC_GDPS_SpecificHumidity_IsbL-0020_LatLon0.15_PT051H.grib2 2026-04-13 16:25 1.4M
20260413T12Z_MSC_GDPS_SpecificHumidity_IsbL-0030_LatLon0.15_PT051H.grib2 2026-04-13 16:25 1.4M
20260413T12Z_MSC_GDPS_SpecificHumidity_IsbL-0050_LatLon0.15_PT051H.grib2 2026-04-13 16:25 1.4M
20260413T12Z_MSC_GDPS_SpecificHumidity_IsbL-0100_LatLon0.15_PT051H.grib2 2026-04-13 16:25 1.3M
20260413T12Z_MSC_GDPS_SpecificHumidity_IsbL-0150_LatLon0.15_PT051H.grib2 2026-04-13 16:25 1.3M
20260413T12Z_MSC_GDPS_SpecificHumidity_IsbL-0175_LatLon0.15_PT051H.grib2 2026-04-13 16:25 1.3M
20260413T12Z_MSC_GDPS_SpecificHumidity_IsbL-0200_LatLon0.15_PT051H.grib2 2026-04-13 16:25 1.0M
20260413T12Z_MSC_GDPS_SpecificHumidity_IsbL-0225_LatLon0.15_PT051H.grib2 2026-04-13 16:25 1.2M
20260413T12Z_MSC_GDPS_SpecificHumidity_IsbL-0250_LatLon0.15_PT051H.grib2 2026-04-13 16:25 1.2M
20260413T12Z_MSC_GDPS_SpecificHumidity_IsbL-0275_LatLon0.15_PT051H.grib2 2026-04-13 16:25 1.1M
20260413T12Z_MSC_GDPS_SpecificHumidity_IsbL-0300_LatLon0.15_PT051H.grib2 2026-04-13 16:25 1.2M
20260413T12Z_MSC_GDPS_SpecificHumidity_IsbL-0350_LatLon0.15_PT051H.grib2 2026-04-13 16:25 1.2M
20260413T12Z_MSC_GDPS_SpecificHumidity_IsbL-0400_LatLon0.15_PT051H.grib2 2026-04-13 16:25 1.4M
20260413T12Z_MSC_GDPS_SpecificHumidity_IsbL-0450_LatLon0.15_PT051H.grib2 2026-04-13 16:25 1.3M
20260413T12Z_MSC_GDPS_SpecificHumidity_IsbL-0500_LatLon0.15_PT051H.grib2 2026-04-13 16:25 1.5M
20260413T12Z_MSC_GDPS_SpecificHumidity_IsbL-0550_LatLon0.15_PT051H.grib2 2026-04-13 16:25 1.6M
20260413T12Z_MSC_GDPS_SpecificHumidity_IsbL-0600_LatLon0.15_PT051H.grib2 2026-04-13 16:25 1.4M
20260413T12Z_MSC_GDPS_SpecificHumidity_IsbL-0650_LatLon0.15_PT051H.grib2 2026-04-13 16:25 1.5M
20260413T12Z_MSC_GDPS_SpecificHumidity_IsbL-0700_LatLon0.15_PT051H.grib2 2026-04-13 16:25 1.6M
20260413T12Z_MSC_GDPS_SpecificHumidity_IsbL-0750_LatLon0.15_PT051H.grib2 2026-04-13 16:25 1.7M
20260413T12Z_MSC_GDPS_SpecificHumidity_IsbL-0800_LatLon0.15_PT051H.grib2 2026-04-13 16:25 1.8M
20260413T12Z_MSC_GDPS_SpecificHumidity_IsbL-0850_LatLon0.15_PT051H.grib2 2026-04-13 16:25 1.9M
20260413T12Z_MSC_GDPS_SpecificHumidity_IsbL-0875_LatLon0.15_PT051H.grib2 2026-04-13 16:25 1.9M
20260413T12Z_MSC_GDPS_SpecificHumidity_IsbL-0900_LatLon0.15_PT051H.grib2 2026-04-13 16:25 1.9M
20260413T12Z_MSC_GDPS_SpecificHumidity_IsbL-0925_LatLon0.15_PT051H.grib2 2026-04-13 16:25 1.6M
20260413T12Z_MSC_GDPS_SpecificHumidity_IsbL-0950_LatLon0.15_PT051H.grib2 2026-04-13 16:25 1.5M
20260413T12Z_MSC_GDPS_SpecificHumidity_IsbL-0970_LatLon0.15_PT051H.grib2 2026-04-13 16:25 1.5M
20260413T12Z_MSC_GDPS_SpecificHumidity_IsbL-0985_LatLon0.15_PT051H.grib2 2026-04-13 16:25 1.5M
20260413T12Z_MSC_GDPS_SpecificHumidity_IsbL-1000_LatLon0.15_PT051H.grib2 2026-04-13 16:25 1.5M
20260413T12Z_MSC_GDPS_SpecificHumidity_IsbL-1015_LatLon0.15_PT051H.grib2 2026-04-13 16:25 1.4M
20260413T12Z_MSC_GDPS_SpecificHumidity_Sfc_LatLon0.15_PT051H.grib2 2026-04-13 16:25 663K
20260413T12Z_MSC_GDPS_Thickness_IsbL-0850to0700_LatLon0.15_PT051H.grib2 2026-04-13 16:25 468K
20260413T12Z_MSC_GDPS_Thickness_IsbL-1000to0500_LatLon0.15_PT051H.grib2 2026-04-13 16:25 370K
20260413T12Z_MSC_GDPS_Thickness_IsbL-1000to0850_LatLon0.15_PT051H.grib2 2026-04-13 16:25 492K
20260413T12Z_MSC_GDPS_TotalCloudCover_Sfc_LatLon0.15_PT051H.grib2 2026-04-13 16:25 831K
20260413T12Z_MSC_GDPS_TotalTotalsIndex_Sfc_LatLon0.15_PT051H.grib2 2026-04-13 16:25 6.2M
20260413T12Z_MSC_GDPS_UVIndex-ClearSky_Sfc_LatLon0.15_PT051H.grib2 2026-04-13 17:06 1.0M
20260413T12Z_MSC_GDPS_UVIndex_Sfc_LatLon0.15_PT051H.grib2 2026-04-13 17:06 1.4M
20260413T12Z_MSC_GDPS_UpwardLongwaveRadiationFlux_NTAtm_LatLon0.15_PT051H.grib2 2026-04-13 16:25 840K
20260413T12Z_MSC_GDPS_VerticalVelocity_IsbL-0200_LatLon0.15_PT051H.grib2 2026-04-13 16:25 920K
20260413T12Z_MSC_GDPS_VerticalVelocity_IsbL-0250_LatLon0.15_PT051H.grib2 2026-04-13 16:25 1.0M
20260413T12Z_MSC_GDPS_VerticalVelocity_IsbL-0500_LatLon0.15_PT051H.grib2 2026-04-13 16:25 1.0M
20260413T12Z_MSC_GDPS_VerticalVelocity_IsbL-0600_LatLon0.15_PT051H.grib2 2026-04-13 16:25 1.1M
20260413T12Z_MSC_GDPS_VerticalVelocity_IsbL-0700_LatLon0.15_PT051H.grib2 2026-04-13 16:25 1.1M
20260413T12Z_MSC_GDPS_VerticalVelocity_IsbL-0850_LatLon0.15_PT051H.grib2 2026-04-13 16:25 1.6M
20260413T12Z_MSC_GDPS_WindChill_Sfc_LatLon0.15_PT051H.grib2 2026-04-13 16:25 5.3M
20260413T12Z_MSC_GDPS_WindDir_AGL-10m_LatLon0.15_PT051H.grib2 2026-04-13 16:25 1.3M
20260413T12Z_MSC_GDPS_WindDir_AGL-120m_LatLon0.15_PT051H.grib2 2026-04-13 16:25 1.4M
20260413T12Z_MSC_GDPS_WindDir_AGL-40m_LatLon0.15_PT051H.grib2 2026-04-13 16:25 1.4M
20260413T12Z_MSC_GDPS_WindDir_AGL-80m_LatLon0.15_PT051H.grib2 2026-04-13 16:25 1.4M
20260413T12Z_MSC_GDPS_WindDir_IsbL-0001_LatLon0.15_PT051H.grib2 2026-04-13 16:25 633K
20260413T12Z_MSC_GDPS_WindDir_IsbL-0005_LatLon0.15_PT051H.grib2 2026-04-13 16:25 788K
20260413T12Z_MSC_GDPS_WindDir_IsbL-0010_LatLon0.15_PT051H.grib2 2026-04-13 16:25 865K
20260413T12Z_MSC_GDPS_WindDir_IsbL-0020_LatLon0.15_PT051H.grib2 2026-04-13 16:25 935K
20260413T12Z_MSC_GDPS_WindDir_IsbL-0030_LatLon0.15_PT051H.grib2 2026-04-13 16:25 894K
20260413T12Z_MSC_GDPS_WindDir_IsbL-0050_LatLon0.15_PT051H.grib2 2026-04-13 16:25 946K
20260413T12Z_MSC_GDPS_WindDir_IsbL-0100_LatLon0.15_PT051H.grib2 2026-04-13 16:25 1.0M
20260413T12Z_MSC_GDPS_WindDir_IsbL-0150_LatLon0.15_PT051H.grib2 2026-04-13 16:25 1.0M
20260413T12Z_MSC_GDPS_WindDir_IsbL-0175_LatLon0.15_PT051H.grib2 2026-04-13 16:25 1.0M
20260413T12Z_MSC_GDPS_WindDir_IsbL-0200_LatLon0.15_PT051H.grib2 2026-04-13 16:25 1.1M
20260413T12Z_MSC_GDPS_WindDir_IsbL-0225_LatLon0.15_PT051H.grib2 2026-04-13 16:25 1.1M
20260413T12Z_MSC_GDPS_WindDir_IsbL-0250_LatLon0.15_PT051H.grib2 2026-04-13 16:25 1.1M
20260413T12Z_MSC_GDPS_WindDir_IsbL-0275_LatLon0.15_PT051H.grib2 2026-04-13 16:25 1.2M
20260413T12Z_MSC_GDPS_WindDir_IsbL-0300_LatLon0.15_PT051H.grib2 2026-04-13 16:25 1.2M
20260413T12Z_MSC_GDPS_WindDir_IsbL-0350_LatLon0.15_PT051H.grib2 2026-04-13 16:25 1.2M
20260413T12Z_MSC_GDPS_WindDir_IsbL-0400_LatLon0.15_PT051H.grib2 2026-04-13 16:25 1.3M
20260413T12Z_MSC_GDPS_WindDir_IsbL-0450_LatLon0.15_PT051H.grib2 2026-04-13 16:25 1.3M
20260413T12Z_MSC_GDPS_WindDir_IsbL-0500_LatLon0.15_PT051H.grib2 2026-04-13 16:25 1.3M
20260413T12Z_MSC_GDPS_WindDir_IsbL-0550_LatLon0.15_PT051H.grib2 2026-04-13 16:25 1.4M
20260413T12Z_MSC_GDPS_WindDir_IsbL-0600_LatLon0.15_PT051H.grib2 2026-04-13 16:25 1.5M
20260413T12Z_MSC_GDPS_WindDir_IsbL-0650_LatLon0.15_PT051H.grib2 2026-04-13 16:25 1.5M
20260413T12Z_MSC_GDPS_WindDir_IsbL-0700_LatLon0.15_PT051H.grib2 2026-04-13 16:25 1.6M
20260413T12Z_MSC_GDPS_WindDir_IsbL-0750_LatLon0.15_PT051H.grib2 2026-04-13 16:25 1.7M
20260413T12Z_MSC_GDPS_WindDir_IsbL-0800_LatLon0.15_PT051H.grib2 2026-04-13 16:25 1.8M
20260413T12Z_MSC_GDPS_WindDir_IsbL-0850_LatLon0.15_PT051H.grib2 2026-04-13 16:25 1.9M
20260413T12Z_MSC_GDPS_WindDir_IsbL-0875_LatLon0.15_PT051H.grib2 2026-04-13 16:25 2.0M
20260413T12Z_MSC_GDPS_WindDir_IsbL-0900_LatLon0.15_PT051H.grib2 2026-04-13 16:25 2.0M
20260413T12Z_MSC_GDPS_WindDir_IsbL-0925_LatLon0.15_PT051H.grib2 2026-04-13 16:25 2.0M
20260413T12Z_MSC_GDPS_WindDir_IsbL-0950_LatLon0.15_PT051H.grib2 2026-04-13 16:25 2.0M
20260413T12Z_MSC_GDPS_WindDir_IsbL-0970_LatLon0.15_PT051H.grib2 2026-04-13 16:25 2.0M
20260413T12Z_MSC_GDPS_WindDir_IsbL-0985_LatLon0.15_PT051H.grib2 2026-04-13 16:25 2.0M
20260413T12Z_MSC_GDPS_WindDir_IsbL-1000_LatLon0.15_PT051H.grib2 2026-04-13 16:25 2.1M
20260413T12Z_MSC_GDPS_WindDir_IsbL-1015_LatLon0.15_PT051H.grib2 2026-04-13 16:25 2.1M
20260413T12Z_MSC_GDPS_WindGust-Max_AGL-10m_LatLon0.15_PT051H.grib2 2026-04-13 16:25 2.2M
20260413T12Z_MSC_GDPS_WindGust-Min_AGL-10m_LatLon0.15_PT051H.grib2 2026-04-13 16:25 2.2M
20260413T12Z_MSC_GDPS_WindGust_AGL-10m_LatLon0.15_PT051H.grib2 2026-04-13 16:25 2.2M
20260413T12Z_MSC_GDPS_WindSpeed_AGL-10m_LatLon0.15_PT051H.grib2 2026-04-13 16:25 1.1M
20260413T12Z_MSC_GDPS_WindSpeed_AGL-120m_LatLon0.15_PT051H.grib2 2026-04-13 16:25 1.2M
20260413T12Z_MSC_GDPS_WindSpeed_AGL-40m_LatLon0.15_PT051H.grib2 2026-04-13 16:25 1.2M
20260413T12Z_MSC_GDPS_WindSpeed_AGL-80m_LatLon0.15_PT051H.grib2 2026-04-13 16:25 1.2M
20260413T12Z_MSC_GDPS_WindSpeed_IsbL-0001_LatLon0.15_PT051H.grib2 2026-04-13 16:25 636K
20260413T12Z_MSC_GDPS_WindSpeed_IsbL-0005_LatLon0.15_PT051H.grib2 2026-04-13 16:25 688K
20260413T12Z_MSC_GDPS_WindSpeed_IsbL-0010_LatLon0.15_PT051H.grib2 2026-04-13 16:25 629K
20260413T12Z_MSC_GDPS_WindSpeed_IsbL-0020_LatLon0.15_PT051H.grib2 2026-04-13 16:25 672K
20260413T12Z_MSC_GDPS_WindSpeed_IsbL-0030_LatLon0.15_PT051H.grib2 2026-04-13 16:25 861K
20260413T12Z_MSC_GDPS_WindSpeed_IsbL-0050_LatLon0.15_PT051H.grib2 2026-04-13 16:25 916K
20260413T12Z_MSC_GDPS_WindSpeed_IsbL-0100_LatLon0.15_PT051H.grib2 2026-04-13 16:25 1.1M
20260413T12Z_MSC_GDPS_WindSpeed_IsbL-0150_LatLon0.15_PT051H.grib2 2026-04-13 16:25 930K
20260413T12Z_MSC_GDPS_WindSpeed_IsbL-0175_LatLon0.15_PT051H.grib2 2026-04-13 16:25 1.0M
20260413T12Z_MSC_GDPS_WindSpeed_IsbL-0200_LatLon0.15_PT051H.grib2 2026-04-13 16:25 1.0M
20260413T12Z_MSC_GDPS_WindSpeed_IsbL-0225_LatLon0.15_PT051H.grib2 2026-04-13 16:25 1.1M
20260413T12Z_MSC_GDPS_WindSpeed_IsbL-0250_LatLon0.15_PT051H.grib2 2026-04-13 16:25 1.1M
20260413T12Z_MSC_GDPS_WindSpeed_IsbL-0275_LatLon0.15_PT051H.grib2 2026-04-13 16:25 1.1M
20260413T12Z_MSC_GDPS_WindSpeed_IsbL-0300_LatLon0.15_PT051H.grib2 2026-04-13 16:25 1.1M
20260413T12Z_MSC_GDPS_WindSpeed_IsbL-0350_LatLon0.15_PT051H.grib2 2026-04-13 16:25 1.1M
20260413T12Z_MSC_GDPS_WindSpeed_IsbL-0400_LatLon0.15_PT051H.grib2 2026-04-13 16:25 1.1M
20260413T12Z_MSC_GDPS_WindSpeed_IsbL-0450_LatLon0.15_PT051H.grib2 2026-04-13 16:25 1.1M
20260413T12Z_MSC_GDPS_WindSpeed_IsbL-0500_LatLon0.15_PT051H.grib2 2026-04-13 16:25 1.1M
20260413T12Z_MSC_GDPS_WindSpeed_IsbL-0550_LatLon0.15_PT051H.grib2 2026-04-13 16:25 1.1M
20260413T12Z_MSC_GDPS_WindSpeed_IsbL-0600_LatLon0.15_PT051H.grib2 2026-04-13 16:25 1.4M
20260413T12Z_MSC_GDPS_WindSpeed_IsbL-0650_LatLon0.15_PT051H.grib2 2026-04-13 16:25 1.4M
20260413T12Z_MSC_GDPS_WindSpeed_IsbL-0700_LatLon0.15_PT051H.grib2 2026-04-13 16:25 1.5M
20260413T12Z_MSC_GDPS_WindSpeed_IsbL-0750_LatLon0.15_PT051H.grib2 2026-04-13 16:25 1.6M
20260413T12Z_MSC_GDPS_WindSpeed_IsbL-0800_LatLon0.15_PT051H.grib2 2026-04-13 16:25 1.6M
20260413T12Z_MSC_GDPS_WindSpeed_IsbL-0850_LatLon0.15_PT051H.grib2 2026-04-13 16:25 1.7M
20260413T12Z_MSC_GDPS_WindSpeed_IsbL-0875_LatLon0.15_PT051H.grib2 2026-04-13 16:25 1.8M
20260413T12Z_MSC_GDPS_WindSpeed_IsbL-0900_LatLon0.15_PT051H.grib2 2026-04-13 16:25 1.8M
20260413T12Z_MSC_GDPS_WindSpeed_IsbL-0925_LatLon0.15_PT051H.grib2 2026-04-13 16:25 1.9M
20260413T12Z_MSC_GDPS_WindSpeed_IsbL-0950_LatLon0.15_PT051H.grib2 2026-04-13 16:25 1.9M
20260413T12Z_MSC_GDPS_WindSpeed_IsbL-0970_LatLon0.15_PT051H.grib2 2026-04-13 16:25 1.9M
20260413T12Z_MSC_GDPS_WindSpeed_IsbL-0985_LatLon0.15_PT051H.grib2 2026-04-13 16:25 1.9M
20260413T12Z_MSC_GDPS_WindSpeed_IsbL-1000_LatLon0.15_PT051H.grib2 2026-04-13 16:25 1.8M
20260413T12Z_MSC_GDPS_WindSpeed_IsbL-1015_LatLon0.15_PT051H.grib2 2026-04-13 16:25 1.8M
20260413T12Z_MSC_GDPS_WindU_AGL-10m_LatLon0.15_PT051H.grib2 2026-04-13 16:25 1.3M
20260413T12Z_MSC_GDPS_WindU_AGL-120m_LatLon0.15_PT051H.grib2 2026-04-13 16:25 1.0M
20260413T12Z_MSC_GDPS_WindU_AGL-40m_LatLon0.15_PT051H.grib2 2026-04-13 16:25 972K
20260413T12Z_MSC_GDPS_WindU_AGL-80m_LatLon0.15_PT051H.grib2 2026-04-13 16:25 1.0M
20260413T12Z_MSC_GDPS_WindU_IsbL-0001_LatLon0.15_PT051H.grib2 2026-04-13 16:25 497K
20260413T12Z_MSC_GDPS_WindU_IsbL-0005_LatLon0.15_PT051H.grib2 2026-04-13 16:25 687K
20260413T12Z_MSC_GDPS_WindU_IsbL-0010_LatLon0.15_PT051H.grib2 2026-04-13 16:25 702K
20260413T12Z_MSC_GDPS_WindU_IsbL-0020_LatLon0.15_PT051H.grib2 2026-04-13 16:25 741K
20260413T12Z_MSC_GDPS_WindU_IsbL-0030_LatLon0.15_PT051H.grib2 2026-04-13 16:25 739K
20260413T12Z_MSC_GDPS_WindU_IsbL-0050_LatLon0.15_PT051H.grib2 2026-04-13 16:25 706K
20260413T12Z_MSC_GDPS_WindU_IsbL-0100_LatLon0.15_PT051H.grib2 2026-04-13 16:25 926K
20260413T12Z_MSC_GDPS_WindU_IsbL-0150_LatLon0.15_PT051H.grib2 2026-04-13 16:25 1.0M
20260413T12Z_MSC_GDPS_WindU_IsbL-0175_LatLon0.15_PT051H.grib2 2026-04-13 16:25 1.0M
20260413T12Z_MSC_GDPS_WindU_IsbL-0200_LatLon0.15_PT051H.grib2 2026-04-13 16:25 1.0M
20260413T12Z_MSC_GDPS_WindU_IsbL-0225_LatLon0.15_PT051H.grib2 2026-04-13 16:25 852K
20260413T12Z_MSC_GDPS_WindU_IsbL-0250_LatLon0.15_PT051H.grib2 2026-04-13 16:25 856K
20260413T12Z_MSC_GDPS_WindU_IsbL-0275_LatLon0.15_PT051H.grib2 2026-04-13 16:25 882K
20260413T12Z_MSC_GDPS_WindU_IsbL-0300_LatLon0.15_PT051H.grib2 2026-04-13 16:25 872K
20260413T12Z_MSC_GDPS_WindU_IsbL-0350_LatLon0.15_PT051H.grib2 2026-04-13 16:25 887K
20260413T12Z_MSC_GDPS_WindU_IsbL-0400_LatLon0.15_PT051H.grib2 2026-04-13 16:25 1.1M
20260413T12Z_MSC_GDPS_WindU_IsbL-0450_LatLon0.15_PT051H.grib2 2026-04-13 16:25 1.1M
20260413T12Z_MSC_GDPS_WindU_IsbL-0500_LatLon0.15_PT051H.grib2 2026-04-13 16:25 1.1M
20260413T12Z_MSC_GDPS_WindU_IsbL-0550_LatLon0.15_PT051H.grib2 2026-04-13 16:25 1.1M
20260413T12Z_MSC_GDPS_WindU_IsbL-0600_LatLon0.15_PT051H.grib2 2026-04-13 16:25 1.1M
20260413T12Z_MSC_GDPS_WindU_IsbL-0650_LatLon0.15_PT051H.grib2 2026-04-13 16:25 1.2M
20260413T12Z_MSC_GDPS_WindU_IsbL-0700_LatLon0.15_PT051H.grib2 2026-04-13 16:25 1.2M
20260413T12Z_MSC_GDPS_WindU_IsbL-0750_LatLon0.15_PT051H.grib2 2026-04-13 16:25 1.3M
20260413T12Z_MSC_GDPS_WindU_IsbL-0800_LatLon0.15_PT051H.grib2 2026-04-13 16:25 1.4M
20260413T12Z_MSC_GDPS_WindU_IsbL-0850_LatLon0.15_PT051H.grib2 2026-04-13 16:25 1.4M
20260413T12Z_MSC_GDPS_WindU_IsbL-0875_LatLon0.15_PT051H.grib2 2026-04-13 16:25 1.5M
20260413T12Z_MSC_GDPS_WindU_IsbL-0900_LatLon0.15_PT051H.grib2 2026-04-13 16:25 1.5M
20260413T12Z_MSC_GDPS_WindU_IsbL-0925_LatLon0.15_PT051H.grib2 2026-04-13 16:25 1.5M
20260413T12Z_MSC_GDPS_WindU_IsbL-0950_LatLon0.15_PT051H.grib2 2026-04-13 16:25 1.4M
20260413T12Z_MSC_GDPS_WindU_IsbL-0970_LatLon0.15_PT051H.grib2 2026-04-13 16:25 1.4M
20260413T12Z_MSC_GDPS_WindU_IsbL-0985_LatLon0.15_PT051H.grib2 2026-04-13 16:25 1.4M
20260413T12Z_MSC_GDPS_WindU_IsbL-1000_LatLon0.15_PT051H.grib2 2026-04-13 16:25 1.4M
20260413T12Z_MSC_GDPS_WindU_IsbL-1015_LatLon0.15_PT051H.grib2 2026-04-13 16:25 1.4M
20260413T12Z_MSC_GDPS_WindV_AGL-10m_LatLon0.15_PT051H.grib2 2026-04-13 16:25 1.3M
20260413T12Z_MSC_GDPS_WindV_AGL-120m_LatLon0.15_PT051H.grib2 2026-04-13 16:25 1.0M
20260413T12Z_MSC_GDPS_WindV_AGL-40m_LatLon0.15_PT051H.grib2 2026-04-13 16:25 971K
20260413T12Z_MSC_GDPS_WindV_AGL-80m_LatLon0.15_PT051H.grib2 2026-04-13 16:25 1.0M
20260413T12Z_MSC_GDPS_WindV_IsbL-0001_LatLon0.15_PT051H.grib2 2026-04-13 16:25 545K
20260413T12Z_MSC_GDPS_WindV_IsbL-0005_LatLon0.15_PT051H.grib2 2026-04-13 16:25 607K
20260413T12Z_MSC_GDPS_WindV_IsbL-0010_LatLon0.15_PT051H.grib2 2026-04-13 16:25 807K
20260413T12Z_MSC_GDPS_WindV_IsbL-0020_LatLon0.15_PT051H.grib2 2026-04-13 16:25 938K
20260413T12Z_MSC_GDPS_WindV_IsbL-0030_LatLon0.15_PT051H.grib2 2026-04-13 16:25 937K
20260413T12Z_MSC_GDPS_WindV_IsbL-0050_LatLon0.15_PT051H.grib2 2026-04-13 16:25 909K
20260413T12Z_MSC_GDPS_WindV_IsbL-0100_LatLon0.15_PT051H.grib2 2026-04-13 16:25 1.1M
20260413T12Z_MSC_GDPS_WindV_IsbL-0150_LatLon0.15_PT051H.grib2 2026-04-13 16:25 1.0M
20260413T12Z_MSC_GDPS_WindV_IsbL-0175_LatLon0.15_PT051H.grib2 2026-04-13 16:25 1.0M
20260413T12Z_MSC_GDPS_WindV_IsbL-0200_LatLon0.15_PT051H.grib2 2026-04-13 16:25 835K
20260413T12Z_MSC_GDPS_WindV_IsbL-0225_LatLon0.15_PT051H.grib2 2026-04-13 16:25 903K
20260413T12Z_MSC_GDPS_WindV_IsbL-0250_LatLon0.15_PT051H.grib2 2026-04-13 16:25 905K
20260413T12Z_MSC_GDPS_WindV_IsbL-0275_LatLon0.15_PT051H.grib2 2026-04-13 16:25 931K
20260413T12Z_MSC_GDPS_WindV_IsbL-0300_LatLon0.15_PT051H.grib2 2026-04-13 16:25 922K
20260413T12Z_MSC_GDPS_WindV_IsbL-0350_LatLon0.15_PT051H.grib2 2026-04-13 16:25 877K
20260413T12Z_MSC_GDPS_WindV_IsbL-0400_LatLon0.15_PT051H.grib2 2026-04-13 16:25 875K
20260413T12Z_MSC_GDPS_WindV_IsbL-0450_LatLon0.15_PT051H.grib2 2026-04-13 16:25 875K
20260413T12Z_MSC_GDPS_WindV_IsbL-0500_LatLon0.15_PT051H.grib2 2026-04-13 16:25 1.1M
20260413T12Z_MSC_GDPS_WindV_IsbL-0550_LatLon0.15_PT051H.grib2 2026-04-13 16:25 1.1M
20260413T12Z_MSC_GDPS_WindV_IsbL-0600_LatLon0.15_PT051H.grib2 2026-04-13 16:25 1.1M
20260413T12Z_MSC_GDPS_WindV_IsbL-0650_LatLon0.15_PT051H.grib2 2026-04-13 16:25 1.1M
20260413T12Z_MSC_GDPS_WindV_IsbL-0700_LatLon0.15_PT051H.grib2 2026-04-13 16:25 1.2M
20260413T12Z_MSC_GDPS_WindV_IsbL-0750_LatLon0.15_PT051H.grib2 2026-04-13 16:25 1.3M
20260413T12Z_MSC_GDPS_WindV_IsbL-0800_LatLon0.15_PT051H.grib2 2026-04-13 16:25 1.3M
20260413T12Z_MSC_GDPS_WindV_IsbL-0850_LatLon0.15_PT051H.grib2 2026-04-13 16:25 1.4M
20260413T12Z_MSC_GDPS_WindV_IsbL-0875_LatLon0.15_PT051H.grib2 2026-04-13 16:25 1.4M
20260413T12Z_MSC_GDPS_WindV_IsbL-0900_LatLon0.15_PT051H.grib2 2026-04-13 16:25 1.5M
20260413T12Z_MSC_GDPS_WindV_IsbL-0925_LatLon0.15_PT051H.grib2 2026-04-13 16:25 1.5M
20260413T12Z_MSC_GDPS_WindV_IsbL-0950_LatLon0.15_PT051H.grib2 2026-04-13 16:25 1.4M
20260413T12Z_MSC_GDPS_WindV_IsbL-0970_LatLon0.15_PT051H.grib2 2026-04-13 16:25 1.4M
20260413T12Z_MSC_GDPS_WindV_IsbL-0985_LatLon0.15_PT051H.grib2 2026-04-13 16:25 1.4M
20260413T12Z_MSC_GDPS_WindV_IsbL-1000_LatLon0.15_PT051H.grib2 2026-04-13 16:25 1.4M
20260413T12Z_MSC_GDPS_WindV_IsbL-1015_LatLon0.15_PT051H.grib2 2026-04-13 16:25 1.4M